DateTimeUTC,F1_A11,F1_S11,BsB_S11,BsG_S11,BsR_S11,BbsB_S11,BbsG_S11,BbsR_S11,BaB_A11,BaG_A11,BaR_A11,Tu_S11,T_S11,Uu_S11,U_S11,P_S11,T1_A11
2021-07-22T07:00:00Z,00000200,20000000,,,,,,,0000.39,0000.10,0000.17,18.4,25.2,06.6,04.3,0667.8,31.1
2021-07-22T07:01:00Z,00000200,20000000,,,,,,,-000.04,-000.21,0000.18,18.4,25.2,06.7,04.4,0667.8,31.1
2021-07-22T07:02:00Z,00000200,20000000,,,,,,,-000.04,0000.08,-000.17,18.4,25.3,06.7,04.4,0667.8,31.1
2021-07-22T07:03:00Z,00000200,60000000,,,,,,,0000.60,0000.61,0000.72,18.4,25.3,06.7,04.4,0667.8,31.1
2021-07-22T07:04:00Z,00000200,40000000,0003.31,0001.95,0001.05,0000.24,0000.26,0000.47,0000.21,0000.22,-000.02,18.7,25.2,06.9,04.7,0668.8,31.1
2021-07-22T07:05:00Z,00000200,00000000,0002.98,0001.88,0000.81,-000.04,0000.34,0000.17,0000.79,0000.67,0000.55,18.7,25.1,07.0,04.7,0668.9,31.1
2021-07-22T07:06:00Z,00000200,00000000,0002.33,0002.10,0001.29,0000.80,0000.41,0000.11,0000.48,0000.75,0000.68,18.7,25.1,07.2,04.9,0668.8,31.1
2021-07-22T07:07:00Z,00000200,00000000,0001.96,0001.79,0001.12,0000.25,0000.03,0000.17,0000.59,0000.62,0000.20,18.7,25.1,07.2,04.9,0668.8,31.1
2021-07-22T07:08:00Z,00000200,00000000,0002.35,0001.97,0001.30,0000.81,0000.38,0000.17,0000.66,-000.01,0000.47,18.6,25.1,07.2,04.9,0668.8,31.1
2021-07-22T07:09:00Z,00000200,00000000,0002.31,0001.96,0001.02,0000.36,0000.32,0000.10,0000.64,0000.70,0000.51,18.6,25.1,07.2,04.9,0668.9,31.1
2021-07-22T07:10:00Z,00000200,00000000,0003.26,0002.24,0001.28,0000.44,0000.03,0000.18,0000.66,0000.61,0000.38,18.6,25.0,07.3,04.9,0668.9,31.1
2021-07-22T07:11:00Z,00000200,00000000,0003.04,0002.31,0001.17,0000.34,0000.18,0000.32,0000.44,0000.69,0000.56,18.6,25.0,07.4,05.0,0668.9,31.1
2021-07-22T07:12:00Z,00000200,00000000,0002.83,0001.86,0001.11,0000.19,0000.34,0000.23,0000.92,0000.56,0000.50,18.6,25.0,07.5,05.0,0668.9,31.0
2021-07-22T07:13:00Z,00000200,00000000,0002.93,0002.15,0001.04,0000.32,0000.35,0000.39,0000.43,0000.63,0000.34,18.6,25.0,07.5,05.1,0668.9,31.0
2021-07-22T07:14:00Z,00000200,00000000,0002.92,0002.34,0001.13,-000.20,0000.51,0000.20,0000.99,0000.79,0000.77,18.6,25.0,07.4,05.0,0668.9,31.0
2021-07-22T07:15:00Z,00000200,00000000,0002.97,0002.18,0001.25,0000.83,0000.24,0000.16,0000.54,0000.54,0000.30,18.7,25.0,07.4,05.0,0668.9,31.1
2021-07-22T07:16:00Z,00000200,00000000,0002.58,0002.40,0001.42,0000.49,0000.55,0000.53,0000.65,0000.56,0000.53,18.7,25.1,07.5,05.1,0668.9,31.1
2021-07-22T07:17:00Z,00000200,00000000,0002.81,0002.52,0000.97,0000.18,0000.03,0000.08,0000.63,0000.44,0000.42,18.7,25.1,07.5,05.1,0668.9,31.1
2021-07-22T07:18:00Z,00000200,00000000,0003.13,0002.25,0001.30,0000.40,0000.44,0000.31,0000.37,0000.59,0000.45,18.8,25.1,07.3,05.0,0668.9,31.1
2021-07-22T07:19:00Z,00000200,00000000,0003.06,0002.38,0001.02,0000.85,0000.24,0000.19,0000.47,0000.53,0000.32,18.7,25.1,07.3,05.0,0668.9,31.1
2021-07-22T07:20:00Z,00000200,00000000,0003.36,0002.11,0001.13,0000.61,0000.40,0000.45,0000.63,0000.47,0000.21,18.7,25.1,07.4,05.0,0668.9,31.1
2021-07-22T07:21:00Z,00000200,00000000,0002.65,0002.37,0001.42,0000.52,0000.30,0000.09,0000.50,0000.36,0000.64,18.7,25.1,07.4,05.0,0668.9,31.1
2021-07-22T07:22:00Z,00000200,00000000,0002.40,0002.47,0001.14,0000.66,0000.66,-000.39,0000.61,0001.04,0000.39,18.7,25.1,07.5,05.1,0668.9,31.1
2021-07-22T07:23:00Z,00000200,00000000,0003.35,0002.03,0001.30,0000.31,0000.42,0000.12,0000.89,0000.32,0000.39,18.6,25.0,07.4,05.0,0669.0,31.1
2021-07-22T07:24:00Z,00000200,00000000,0002.44,0001.98,0001.34,0001.10,0000.21,0000.37,0000.48,0000.80,0000.83,18.6,25.0,07.5,05.1,0669.0,31.0
2021-07-22T07:25:00Z,00000200,00000000,0002.97,0001.92,0001.16,0000.66,0000.28,0000.30,0001.02,0000.58,0000.33,18.6,25.0,07.6,05.2,0669.0,31.1
2021-07-22T07:26:00Z,00000200,00000000,0002.93,0002.17,0001.20,0000.46,0000.43,0000.62,0000.46,0000.44,0000.59,18.6,25.0,07.6,05.1,0669.0,31.1
2021-07-22T07:27:00Z,00000200,00000000,0003.24,0002.21,0001.17,0000.05,0000.23,0000.57,0000.46,0000.60,0000.20,18.6,25.0,07.6,05.2,0669.0,31.0
2021-07-22T07:28:00Z,00000200,00000000,0003.49,0002.03,0001.23,0000.78,0000.19,0000.11,0000.48,0000.67,0000.41,18.6,25.0,07.6,05.2,0669.0,31.0
2021-07-22T07:29:00Z,00000200,00000000,0002.61,0001.98,0000.97,0000.79,0000.44,-000.02,0000.82,0000.32,0000.73,18.6,25.0,07.6,05.1,0669.0,31.1
2021-07-22T07:30:00Z,00000200,00000000,0002.62,0001.91,0001.13,0000.27,0000.59,0000.27,0000.92,0000.80,0000.19,18.6,25.0,07.5,05.1,0669.0,31.1
2021-07-22T07:31:00Z,00000200,00000000,0002.56,0002.16,0000.77,0000.62,0000.21,0000.13,0000.19,0000.50,0000.38,18.7,25.0,07.6,05.2,0669.0,31.1
2021-07-22T07:32:00Z,00000200,00000000,0002.77,0002.18,0001.10,0000.81,0000.58,0000.48,0000.43,0000.47,0000.74,18.7,25.0,07.6,05.1,0669.0,31.1
2021-07-22T07:33:00Z,00000200,00000000,0002.34,0002.16,0001.20,0000.36,0000.38,0000.32,0000.43,0000.23,0000.45,18.7,25.0,07.5,05.1,0669.0,31.1
2021-07-22T07:34:00Z,00000200,00000000,0003.09,0002.05,0001.23,0000.45,0000.25,0000.22,0000.49,0000.51,-000.17,18.7,25.0,07.4,05.0,0669.0,31.1
2021-07-22T07:35:00Z,00000200,00000000,0002.39,0002.44,0000.79,0000.85,0000.43,0000.02,0000.76,0000.48,0000.74,18.7,25.0,07.6,05.1,0669.0,31.1
2021-07-22T07:36:00Z,00000200,00000000,0002.25,0002.17,0001.12,0000.44,0000.38,0000.03,0000.22,0000.08,0000.19,18.6,25.0,07.5,05.1,0669.0,31.1
2021-07-22T07:37:00Z,00000200,00000000,0002.93,0002.13,0000.86,0000.21,0000.39,0000.06,0000.65,0001.17,0000.23,18.6,25.0,07.5,05.0,0669.0,31.1
2021-07-22T07:38:00Z,00000200,00000000,0002.21,0001.82,0001.30,0000.28,0000.40,0000.39,0000.50,0000.19,0000.51,18.6,25.0,07.6,05.1,0669.0,31.0
2021-07-22T07:39:00Z,00000200,00000000,0002.28,0001.95,0000.89,0000.62,0000.59,0000.14,0000.42,0000.48,0000.28,18.6,25.0,07.5,05.1,0669.0,31.1
2021-07-22T07:40:00Z,00000200,00000000,0001.53,0001.87,0001.06,0000.61,0000.40,0000.03,0000.61,0000.47,0000.16,18.5,24.9,07.6,05.1,0669.0,31.1
2021-07-22T07:41:00Z,00000200,00000000,0002.56,0002.14,0001.07,0000.38,0000.22,0000.22,0000.45,0000.65,0000.51,18.5,24.9,07.7,05.2,0669.1,31.1
2021-07-22T07:42:00Z,00000200,00000000,0002.77,0001.87,0000.68,0000.20,0000.41,-000.23,0000.26,0000.12,0000.67,18.5,24.9,07.7,05.2,0669.1,31.0
2021-07-22T07:43:00Z,00000200,00000000,0002.54,0002.00,0001.06,0000.71,0000.23,-000.09,0001.13,0000.64,0000.37,18.5,24.9,07.6,05.1,0669.1,31.1
2021-07-22T07:44:00Z,00000200,00000000,0002.39,0001.90,0001.22,0000.46,0000.23,0000.29,0000.50,0000.56,0000.36,18.5,24.9,07.6,05.1,0669.1,31.1
2021-07-22T07:45:00Z,00000200,00000000,0001.80,0001.78,0000.82,0000.82,0000.25,0000.19,0000.36,0000.58,0000.57,18.6,24.9,07.7,05.2,0669.1,31.1
2021-07-22T07:46:00Z,00000200,00000000,0002.40,0001.56,0000.94,0000.41,0000.00,0000.08,0000.71,0000.35,0000.54,18.6,25.0,07.5,05.1,0669.1,31.1
2021-07-22T07:47:00Z,00000200,00000000,0002.60,0001.71,0000.93,0000.56,0000.37,0000.39,0000.64,0000.98,0000.41,18.6,24.9,07.6,05.2,0669.1,31.1
2021-07-22T07:48:00Z,00000200,00000000,0003.26,0001.75,0000.83,0000.31,0000.44,0000.40,0000.20,-000.07,0000.02,18.7,24.9,07.8,05.3,0669.1,31.1
2021-07-22T07:49:00Z,00000200,00000000,0001.95,0001.84,0001.05,0000.33,0000.43,0000.03,0000.71,0000.44,0000.76,18.7,25.0,07.6,05.2,0669.1,31.1
2021-07-22T07:50:00Z,00000200,00000000,0002.44,0001.58,0000.95,0000.89,0000.15,0000.20,0000.18,0000.67,-000.12,18.6,24.9,07.7,05.2,0669.1,31.1
2021-07-22T07:51:00Z,00000200,00000000,0002.02,0001.94,0000.77,0000.45,0000.41,0000.12,0000.80,0000.55,0000.46,18.6,24.9,07.8,05.3,0669.1,31.1
2021-07-22T07:52:00Z,00000200,00000000,0002.52,0001.89,0000.84,0000.51,0000.39,0000.14,0000.38,0000.47,0000.41,18.6,24.9,07.7,05.2,0669.1,31.0
2021-07-22T07:53:00Z,00000200,00000000,0002.41,0001.93,0000.89,0000.54,0000.28,0000.02,0000.49,0000.52,0000.33,18.6,24.9,07.7,05.2,0669.2,31.1
2021-07-22T07:54:00Z,00000200,00000000,0002.11,0001.51,0000.88,0001.15,0000.34,0000.14,0000.41,0000.22,0000.33,18.6,24.9,07.7,05.2,0669.1,31.0
2021-07-22T07:55:00Z,00000200,00000000,0001.89,0001.81,0000.59,0000.49,0000.29,-000.30,0000.50,0000.71,0000.24,18.5,24.9,07.7,05.2,0669.1,31.0
2021-07-22T07:56:00Z,00000200,00000000,0001.52,0001.67,0000.89,0000.48,0000.43,0000.35,0000.25,0000.22,0000.40,18.5,24.9,07.7,05.2,0669.1,31.1
2021-07-22T07:57:00Z,00000200,40000000,,,,,,,0000.02,-000.36,-000.00,18.5,24.9,08.0,05.4,0669.0,31.0
2021-07-22T07:58:00Z,00000200,60000000,,,,,,,0000.10,0000.14,0000.00,18.3,25.0,07.7,05.1,0668.1,31.0
2021-07-22T07:59:00Z,00000200,20000000,,,,,,,0000.03,0000.17,0000.12,18.3,25.1,07.6,05.0,0668.1,31.1
